Flag for U.S.A. Weather past 2 weeks in Lexington, Virginia, U.S.A.

Now
4 °F

Clear.


Feels Like: -9 °F
Forecast: 8 / 33 °F
Wind: 8 mph from Northwest

Location: Hot Springs / Ingalls

Current Time: Mar 6, 2015 at 4:04:32 AM

Latest Report: Mar 6, 2015 at 3:30 AM


Visibility: 10 mi

Pressure: 30.14 "Hg

Humidity: 94%

Dew point: 3 °F

Location of LexingtonLocation

Historic Weather in Lexington — Graph

°F

Lexington temperature yesterday

Maximum temperature yesterday: 36 °F (at 12:15 AM)
Minimum temperature yesterday: 8 °F (at 11:55 PM)
Average temperature yesterday: 24 °F

Past Weeks' High & Low Weather Summary

 TemperatureHumidityPressure
High51 °F (Mar 4, 3:55 AM)100% (Feb 21, 5:15 PM)30.52 "Hg (Feb 21, 5:15 PM)
Low-11 °F (Feb 20, 7:15 AM)16% (Feb 20, 6:55 PM)29.60 "Hg (Feb 25, 12:55 AM)
Average23 °F78%30.03 "Hg
* Reported Feb 19 2:15 AM — Mar 6 2:55 AM, Lexington, Weather by CustomWeather, © 2015

Note: Actual official high and low records may vary slightly from our data, if they occured in-between our weather recording intervals... More about our weather records

Advertising

Lexington weather history for previous 24 hours

 ConditionsComfort  
Time TempWeatherWind HumidityBarometerVisibility
2:55 AM
Fri, Mar 6
5 °FClear.8 mph93%30.14 "Hg10 mi
2:35 AM5 °FClear.8 mph92%30.15 "Hg10 mi
2:15 AM5 °FClear.7 mph94%30.15 "Hg10 mi
1:55 AM5 °FClear.8 mph93%30.15 "Hg10 mi
1:35 AM6 °FClear.5 mph94%30.15 "Hg10 mi
1:15 AM6 °FClear.6 mph94%30.15 "Hg10 mi
12:55 AM6 °FClear.6 mph94%30.15 "Hg10 mi
12:35 AM7 °FPassing clouds.3 mph93%30.15 "Hg10 mi
12:15 AM8 °FLight snow. Passing clouds.5 mph95%30.15 "Hg10 mi
11:55 PM
Thu, Mar 5
8 °FLight snow. Low clouds.No wind95%30.15 "Hg5 mi
11:15 PM9 °FPassing clouds.5 mph94%30.15 "Hg10 mi
10:55 PM10 °FPassing clouds.6 mph95%30.16 "Hg10 mi
10:15 PM10 °FPassing clouds.3 mph96%30.16 "Hg10 mi
9:55 PM11 °FOvercast.No wind97%30.15 "Hg10 mi
9:15 PM13 °FLow clouds.No wind98%30.14 "Hg10 mi
8:55 PM14 °FMostly cloudy.3 mph98%30.12 "Hg10 mi
8:35 PM14 °FLow clouds.No wind98%30.11 "Hg10 mi
8:15 PM15 °FLow clouds.No wind99%30.10 "Hg10 mi
7:55 PM15 °FLow clouds.No wind100%30.10 "Hg10 mi
7:35 PM16 °FLow clouds.No wind99%30.10 "Hg10 mi
7:15 PM17 °FLow clouds.No wind100%30.08 "Hg10 mi
6:55 PM17 °FMostly cloudy.No wind100%30.08 "Hg10 mi
6:35 PM17 °FMostly cloudy.No wind100%30.06 "Hg10 mi
6:15 PM17 °FIce fog.No wind100%30.05 "Hg4 mi
5:55 PM18 °FLight snow. Low clouds.No wind100%30.05 "Hg1 mi
5:35 PM18 °FLight snow. Low clouds.5 mph100%30.04 "Hg1 mi
4:55 PM21 °FIce fog.3 mph100%30.00 "Hg0 mi
4:15 PM21 °FIce fog.No wind100%29.98 "Hg0 mi
3:55 PM21 °FIce fog.No wind100%29.98 "Hg1 mi
3:35 PM21 °FIce fog.No wind100%29.96 "Hg3 mi
3:15 PM21 °FMostly cloudy.No wind100%29.95 "Hg7 mi
2:55 PM21 °FMostly cloudy.6 mph100%29.94 "Hg10 mi
2:35 PM22 °FLight snow. Mostly cloudy.No wind100%29.92 "Hg7 mi
2:15 PM22 °FLight snow. Low clouds.No wind100%29.92 "Hg1 mi
1:55 PM22 °FSnow. Low clouds.No wind100%29.93 "Hg0 mi
1:35 PM22 °FSnow. Low clouds.No wind100%29.95 "Hg0 mi
12:55 PM22 °FSnow. Low clouds.No wind100%29.94 "Hg0 mi
12:35 PM23 °FHeavy snow. Low clouds.5 mph100%29.95 "Hg0 mi
12:15 PM24 °FHeavy snow. Low clouds.No wind100%29.96 "Hg0 mi
10:55 AM26 °FLight snow. Low clouds.No wind100%29.91 "Hg0 mi
10:15 AM26 °FLight snow. Low clouds.No wind100%29.95 "Hg0 mi
9:55 AM27 °FSnow. Low clouds.No wind100%29.93 "Hg0 mi
9:35 AM28 °FLight snow. Low clouds.6 mph100%29.93 "Hg0 mi
9:15 AM30 °FLight snow. Low clouds.5 mph100%29.91 "Hg0 mi
8:55 AM31 °FLight snow. Low clouds.No wind100%29.90 "Hg2 mi
8:15 AM29 °FLight snow. Low clouds.No wind100%29.88 "Hg0 mi
7:55 AM30 °FLight snow. Low clouds.5 mph100%29.90 "Hg0 mi
7:15 AM30 °FLight snow. Low clouds.6 mph100%29.90 "Hg0 mi
6:55 AM30 °FLight snow. Low clouds.8 mph100%29.91 "Hg0 mi
6:35 AM30 °FLight snow. Low clouds.8 mph100%29.91 "Hg0 mi
6:15 AM30 °FLight snow. Low clouds.13 mph100%29.88 "Hg0 mi
5:55 AM29 °FLight snow. Low clouds.13 mph100%29.88 "Hg0 mi
5:35 AM30 °FLight snow. Low clouds.13 mph100%29.88 "Hg0 mi
5:15 AM31 °FLight snow. Low clouds.13 mph100%29.87 "Hg0 mi
4:55 AM30 °FLight snow. Low clouds.13 mph100%29.86 "Hg0 mi
4:15 AM32 °FIce fog.12 mph100%29.86 "Hg0 mi
Weather by CustomWeather, © 2015

See weather overviewHow to use our weather pages